[[{"header":{"parameterUnit":"m.s-1","parameterCategory":1,"la1":30.2991,"la2":30.254,"lo1":-89.0895,"lo2":-89.0444,"dy":0.0017,"dx":0.0017,"nx":28,"ny":28,"refTime":"2025-02-27T09:00:00:Z","depth":0,"parameterNumber":2,"parameterNumberName":"U-component_of_WINDS"},"data":[0,0,0,0,0,0,0,0,0,0,0,0,0,0,0,0,0,0,0,0,0,0,0,0,0,0,0,0,0,0,0,0,0,0,0,0,0,0,0,0,0,0,0,0,0,0,0,0,0,0,0,0,0,0,0,0,0,0,0.9073,0.9072,0,0.9058,0.9058,0.9058,0.9048,0.9048,0.9048,0.9048,0.9033,0.9033,0.9032,0,0,0,0,0,0,0,0,0,0,0,0,0,0.9091,0.9091,0.9073,0.9072,0.9072,0.9058,0.9058,0.9058,0.9048,0.9048,0.9048,0.9048,0.9033,0.9033,0.9032,0,0,0,0,0,0,0,0,0,0,0,0,0,0.908,0.909,0.9073,0.9066,0.9065,0.9058,0.9058,0.9058,0.9048,0.9048,0.9048,0.9048,0.9033,0.9033,0.9032,0.9031,0,0,0.9031,0.903,0,0,0,0,0,0,0,0,0.9081,0.908,0.9067,0.9066,0.9065,0.9055,0.9059,0.9049,0.9049,0.9055,0.9048,0.9048,0.904,0.9039,0.9037,0.903,0.9029,0.903,0.903,0.903,0.903,0,0,0,0,0,0,0,0.9082,0.908,0.9067,0.9067,0.9066,0.9063,0.9062,0.9057,0.9048,0.9054,0.9053,0.9052,0.904,0.9037,0.9036,0.9029,0.903,0.903,0.903,0.9029,0.9021,0.9021,0,0,0,0,0,0,0.9084,0.9081,0.9067,0.9066,0.9073,0.9063,0.9061,0.9058,0.9048,0.9047,0.9052,0.9052,0.9038,0.9037,0.9036,0.9033,0.903,0.9029,0.9029,0.9021,0.9021,0.9021,0,0,0,0,0,0,0.9084,0.9082,0.9068,0.9073,0.9071,0.9063,0.906,0.9058,0.9056,0.9047,0.9045,0.9051,0.9038,0.9036,0.9032,0.9033,0.9029,0.9029,0.9021,0.9021,0.9021,0.9029,0,0,0,0,0,0,0.9085,0.9083,0.9082,0.9074,0.9071,0.9065,0.906,0.9058,0.9055,0.9054,0.9045,0.9044,0.9038,0.9033,0.9032,0.9032,0.9028,0.9021,0.9021,0.9021,0.9029,0.9029,0.903,0,0,0,0,0,0.9085,0.9085,0.9082,0.9081,0.907,0.9065,0.9063,0.9057,0.9055,0.9054,0.9049,0.9044,0.9033,0.9033,0.9031,0.9031,0.902,0.9021,0.9021,0.9028,0.9029,0.903,0,0,0,0,0,0,0.9093,0.9084,0.9081,0.9077,0.9072,0.9063,0.9062,0.9058,0.9053,0.9053,0.9045,0.9043,0.9039,0.9035,0.9035,0.9029,0.9026,0.9026,0.9032,0.9033,0.9034,0.9035,0.9028,0,0,0,0,0,0.9095,0.9091,0.9083,0.9081,0.9078,0.9071,0.9068,0.9064,0.9058,0.9055,0.9049,0.9044,0.9039,0.9036,0.9031,0.9028,0.9026,0.9027,0.9028,0.9029,0.9029,0.9027,0.9027,0.9022,0.9022,0.9022,0,0,0.9098,0.9092,0.909,0.9082,0.9078,0.9074,0.9069,0.9065,0.9062,0.9055,0.905,0.9046,0.9039,0.9035,0.9033,0.9031,0.903,0.9029,0.903,0.9029,0.9027,0.9028,0.9028,0.9022,0.9022,0.9022,0,0,0.9101,0.9096,0.9094,0.909,0.9083,0.9078,0.9078,0.9069,0.9066,0.9062,0.9056,0.9052,0.9044,0.904,0.9036,0.9038,0.9034,0.9037,0.9041,0.9039,0.9039,0.904,0.904,0.9041,0.9037,0.9037,0.9037,0,0.9105,0.91,0.9093,0.909,0.9087,0.908,0.9078,0.9074,0.9066,0.9063,0.9062,0.9052,0.9046,0.9042,0.9042,0.904,0.9039,0.9038,0.904,0.904,0.904,0.9041,0.9041,0.9037,0.9037,0.9037,0.9037,0,0.9105,0.9101,0.91,0.9093,0.909,0.9087,0.908,0.9078,0.9074,0.9069,0.9064,0.9058,0.9052,0.9051,0.9047,0.9045,0.9044,0.9041,0.9038,0.9041,0.9042,0.9042,0.9038,0.9038,0.9038,0.9038,0,0,0.9113,0.9102,0.9102,0.9099,0.9091,0.9088,0.9085,0.9079,0.9077,0.9072,0.9069,0.9062,0.906,0.9056,0.9051,0.905,0.9052,0.9047,0.9046,0.9048,0.905,0.9052,0.9052,0.9049,0.9049,0.9049,0.905,0,0.9114,0.9109,0.9103,0.9099,0.9096,0.909,0.9087,0.9082,0.9078,0.9074,0.9069,0.9065,0.9061,0.9059,0.9057,0.9052,0.9052,0.9052,0.9046,0.9046,0.9047,0.9053,0.9055,0.9056,0.9051,0.9051,0.9051,0,0.9116,0.9111,0.9107,0.91,0.9098,0.9096,0.909,0.9087,0.9081,0.9078,0.9074,0.9069,0.9066,0.9063,0.9058,0.9058,0.9055,0.9052,0.9052,0.9051,0.9048,0.9051,0.9057,0.9057,0.9051,0.9051,0.9051,0,0.9121,0.9114,0.9111,0.9108,0.91,0.9098,0.9095,0.9089,0.9086,0.9081,0.9079,0.9074,0.9071,0.9067,0.906,0.9059,0.9056,0.9053,0.9053,0.9053,0.9052,0.9052,0.9057,0.9051,0.9051,0.9051,0.9051,0,0.9124,0.9121,0.9113,0.9111,0.9108,0.9102,0.91,0.9095,0.909,0.9087,0.9082,0.9079,0.9071,0.9068,0.9063,0.9059,0.9058,0.9055,0.9054,0.9056,0.9056,0.9053,0.9053,0.9051,0.9051,0.9051,0.9051,0,0.9129,0.9124,0.912,0.9112,0.911,0.9109,0.9102,0.91,0.9095,0.9092,0.909,0.9083,0.9079,0.9072,0.9066,0.9062,0.9059,0.9058,0.9061,0.9061,0.9061,0.9061,0.9064,0.9064,0.9059,0.9059,0.9059,0,0.9131,0.9129,0.9122,0.9119,0.9116,0.9112,0.9109,0.9103,0.91,0.9094,0.9092,0.9087,0.9083,0.9076,0.907,0.9065,0.9063,0.9064,0.9062,0.9064,0.9062,0.9062,0.9062,0.9065,0.9065,0.9065,0.9065,0,0.9135,0.9132,0.9128,0.9123,0.912,0.9116,0.9111,0.911,0.9103,0.91,0.9095,0.9092,0.9085,0.908,0.9075,0.9071,0.9067,0.9066,0.9065,0.9067,0.9069,0.9068,0.9063,0.9066,0.9065,0.9065,0.9065,0.9065,0.9138,0.9136,0.9131,0.9127,0.9123,0.9119,0.9116,0.9112,0.9108,0.9102,0.9099,0.9094,0.9089,0.9081,0.9077,0.9073,0.9072,0.9071,0.9071,0.9071,0.9072,0.907,0.9072,0.9072,0.9072,0.9072,0.9072,0,0.9141,0.9138,0.9134,0.9128,0.9125,0.9122,0.9117,0.9114,0.911,0.9106,0.9102,0.9096,0.9092,0.9086,0.9081,0.9079,0.9077,0.9078,0.9077,0.9077,0.9073,0.9074,0.9079,0.9079,0.9079,0.9079,0.9079,0.9079,0.9142,0.9139,0.9136,0.9131,0.9127,0.9123,0.912,0.9117,0.9113,0.9107,0.9103,0.91,0.9094,0.9089,0.9085,0.9083,0.9081,0.9083,0.908,0.9077,0.9077,0.9076,0.9077,0.9082,0.9082,0.9084,0.9084,0.9084]},{"header":{"parameterUnit":"m.s-1","parameterCategory":1,"la1":30.2991,"la2":30.254,"lo1":-89.0895,"lo2":-89.0444,"dy":0.0017,"dx":0.0017,"nx":28,"ny":28,"refTime":"2025-02-27T09:00:00:Z","depth":0,"parameterNumber":3,"parameterNumberName":"V-component_of_WINDS"},"data":[0,0,0,0,0,0,0,0,0,0,0,0,0,0,0,0,0,0,0,0,0,0,0,0,0,0,0,0,0,0,0,0,0,0,0,0,0,0,0,0,0,0,0,0,0,0,0,0,0,0,0,0,0,0,0,0,0,0,-4.3484,-4.3485,0,-4.3594,-4.3595,-4.3596,-4.3564,-4.3562,-4.356,-4.3557,-4.3669,-4.3673,-4.3678,0,0,0,0,0,0,0,0,0,0,0,0,0,-4.3246,-4.325,-4.3483,-4.3485,-4.3486,-4.3593,-4.3595,-4.3596,-4.3564,-4.3562,-4.3559,-4.3556,-4.3667,-4.3673,-4.3679,0,0,0,0,0,0,0,0,0,0,0,0,0,-4.3352,-4.3252,-4.3483,-4.3483,-4.3484,-4.3593,-4.3595,-4.3597,-4.3565,-4.3562,-4.3558,-4.3555,-4.3665,-4.3672,-4.368,-4.3795,0,0,-4.3703,-4.3706,0,0,0,0,0,0,0,0,-4.3346,-4.336,-4.3482,-4.3483,-4.3485,-4.3562,-4.3552,-4.3663,-4.3566,-4.3534,-4.3557,-4.3553,-4.3636,-4.3645,-4.3673,-4.38,-4.3805,-4.3704,-4.3708,-4.3712,-4.3714,0,0,0,0,0,0,0,-4.3338,-4.3355,-4.3527,-4.3484,-4.3486,-4.3478,-4.3489,-4.3573,-4.3603,-4.3537,-4.3535,-4.3548,-4.3636,-4.3666,-4.3676,-4.3806,-4.3703,-4.371,-4.3715,-4.3718,-4.4035,-4.4038,0,0,0,0,0,0,-4.333,-4.335,-4.3523,-4.353,-4.3406,-4.3485,-4.3497,-4.354,-4.3602,-4.3608,-4.3551,-4.3546,-4.3655,-4.3667,-4.368,-4.382,-4.3711,-4.3719,-4.3723,-4.4031,-4.4035,-4.404,0,0,0,0,0,0,-4.3325,-4.3346,-4.3519,-4.3439,-4.3461,-4.3493,-4.3541,-4.3544,-4.3575,-4.3612,-4.3618,-4.3577,-4.3653,-4.3669,-4.3767,-4.3823,-4.3722,-4.3729,-4.4026,-4.4032,-4.4037,-4.4101,0,0,0,0,0,0,-4.3318,-4.3344,-4.3388,-4.3441,-4.3465,-4.3605,-4.3544,-4.3549,-4.3588,-4.3583,-4.3638,-4.3644,-4.3651,-4.3756,-4.3775,-4.3832,-4.3735,-4.4021,-4.4029,-4.4036,-4.4094,-4.4108,-4.412,0,0,0,0,0,-4.331,-4.3401,-4.3391,-4.3412,-4.3521,-4.3608,-4.3622,-4.363,-4.3593,-4.3638,-4.3662,-4.3642,-4.3814,-4.3766,-4.3787,-4.3848,-4.4018,-4.4027,-4.4035,-4.4088,-4.4105,-4.412,0,0,0,0,0,0,-4.3353,-4.3408,-4.3397,-4.3507,-4.3554,-4.3603,-4.3659,-4.3647,-4.3704,-4.3697,-4.3703,-4.3716,-4.3817,-4.3841,-4.3787,-4.3963,-4.391,-4.3924,-4.3943,-4.396,-4.3973,-4.3966,-4.3741,0,0,0,0,0,-4.3376,-4.3442,-4.3486,-4.3579,-4.3603,-4.3627,-4.3665,-4.3667,-4.3715,-4.3734,-4.3766,-4.3813,-4.3877,-4.392,-4.3981,-4.4097,-4.4109,-4.4149,-4.4162,-4.4172,-4.4184,-4.4249,-4.4268,-4.4068,-4.4068,-4.4068,0,0,-4.3423,-4.3461,-4.3502,-4.3589,-4.3625,-4.3694,-4.3644,-4.3718,-4.377,-4.3745,-4.3841,-4.3865,-4.3918,-4.4026,-4.4075,-4.405,-4.4242,-4.4183,-4.4192,-4.4198,-4.426,-4.4279,-4.4296,-4.4074,-4.4073,-4.4072,0,0,-4.3544,-4.3579,-4.3662,-4.3699,-4.3755,-4.377,-4.379,-4.3842,-4.3858,-4.3954,-4.3937,-4.3998,-4.4109,-4.4148,-4.4182,-4.432,-4.4304,-4.4339,-4.4409,-4.4472,-4.4488,-4.4502,-4.4553,-4.4571,-4.4351,-4.4351,-4.4351,0,-4.3596,-4.37,-4.3705,-4.3783,-4.3822,-4.3804,-4.3888,-4.3924,-4.3996,-4.4024,-4.3995,-4.4135,-4.4169,-4.4286,-4.432,-4.4348,-4.4372,-4.4334,-4.4485,-4.4499,-4.4512,-4.4561,-4.458,-4.4355,-4.4354,-4.4354,-4.4354,0,-4.3761,-4.3833,-4.3893,-4.3966,-4.4011,-4.4092,-4.411,-4.4156,-4.4154,-4.4173,-4.4271,-4.4311,-4.4382,-4.4409,-4.4407,-4.4528,-4.451,-4.4483,-4.4431,-4.4535,-4.4581,-4.46,-4.4361,-4.4359,-4.4358,-4.4357,0,0,-4.3913,-4.3989,-4.4011,-4.4044,-4.4105,-4.4161,-4.424,-4.431,-4.435,-4.44,-4.4468,-4.4563,-4.4539,-4.4578,-4.458,-4.4635,-4.4744,-4.4601,-4.4602,-4.4628,-4.4881,-4.4903,-4.4924,-4.4734,-4.4737,-4.474,-4.4877,0,-4.4042,-4.4183,-4.4191,-4.4319,-4.4387,-4.4371,-4.4441,-4.4486,-4.4505,-4.4566,-4.4587,-4.4655,-4.4617,-4.4641,-4.4694,-4.472,-4.4795,-4.4709,-4.4797,-4.4801,-4.4787,-4.4948,-4.4971,-4.5099,-4.4895,-4.4898,-4.49,0,-4.421,-4.4268,-4.4403,-4.4456,-4.4485,-4.4547,-4.4613,-4.467,-4.4721,-4.4731,-4.4776,-4.4771,-4.4853,-4.4797,-4.491,-4.4852,-4.4888,-4.4906,-4.4911,-4.4921,-4.4858,-4.4964,-4.5139,-4.5159,-4.4928,-4.4926,-4.4924,0,-4.431,-4.4421,-4.4517,-4.4546,-4.4609,-4.4654,-4.4682,-4.4729,-4.4771,-4.4828,-4.4856,-4.4921,-4.4957,-4.5007,-4.502,-4.4978,-4.5135,-4.5079,-4.5147,-4.5146,-4.5181,-4.5179,-4.5367,-4.5202,-4.5202,-4.5201,-4.5201,0,-4.4454,-4.4538,-4.4563,-4.4623,-4.4717,-4.4725,-4.4818,-4.4843,-4.4886,-4.495,-4.4939,-4.4999,-4.5011,-4.5074,-4.5084,-4.5178,-4.5193,-4.5205,-4.5207,-4.5207,-4.5206,-4.5232,-4.5224,-4.5206,-4.5205,-4.5204,-4.5203,0,-4.4582,-4.4602,-4.4706,-4.4758,-4.4773,-4.484,-4.4885,-4.4942,-4.496,-4.5042,-4.5061,-4.5091,-4.5164,-4.5182,-4.5268,-4.5275,-4.5387,-4.5379,-4.5371,-4.5371,-4.5438,-4.5432,-4.5651,-4.5681,-4.5494,-4.5496,-4.5497,0,-4.4673,-4.4738,-4.4797,-4.484,-4.4871,-4.4939,-4.4982,-4.4993,-4.5039,-4.5102,-4.5152,-4.5224,-4.5283,-4.5401,-4.543,-4.5497,-4.5492,-4.5564,-4.5502,-4.5501,-4.5496,-4.5493,-4.55,-4.5576,-4.5578,-4.558,-4.5581,0,-4.4834,-4.4841,-4.4904,-4.4972,-4.5024,-4.5077,-4.5128,-4.5163,-4.5181,-4.5233,-4.5309,-4.5355,-4.5445,-4.5517,-4.5584,-4.5613,-4.5601,-4.56,-4.562,-4.5622,-4.5615,-4.5622,-4.5405,-4.5596,-4.5594,-4.5593,-4.5592,-4.5592,-4.4948,-4.5005,-4.5057,-4.5128,-4.5168,-4.5216,-4.5273,-4.5299,-4.5363,-4.5438,-4.544,-4.5523,-4.5573,-4.5662,-4.5695,-4.576,-4.5738,-4.5766,-4.5773,-4.578,-4.5788,-4.5603,-4.5772,-4.5772,-4.5771,-4.5771,-4.5771,0,-4.511,-4.5142,-4.5208,-4.528,-4.5336,-4.532,-4.5376,-4.5424,-4.5498,-4.5546,-4.5604,-4.5692,-4.5763,-4.5798,-4.5867,-4.5913,-4.5909,-4.5931,-4.5929,-4.5936,-4.5802,-4.5779,-4.5933,-4.5933,-4.5933,-4.5933,-4.5933,-4.5933,-4.5201,-4.5298,-4.5311,-4.5428,-4.546,-4.5542,-4.5576,-4.5621,-4.5659,-4.5758,-4.5817,-4.584,-4.5883,-4.5956,-4.602,-4.6028,-4.6056,-4.6081,-4.6087,-4.5961,-4.5945,-4.5929,-4.5908,-4.6086,-4.6086,-4.6215,-4.6216,-4.6217]}]]